• In Deutschland
  • Länderverzeichnis
  • Für 7 Tage
  • Wassertemperatur
  • Satellitenkarten
  • Wetterkarte
  • Widgets
  • user-avatar
    Anmelden

    Stündliche Wetter Fier

    Heute, 25 November, Samstag

    Zeit Temperatur Niederschläge Wind Luftdruck Luftfeuchtigkeit
    00:00 +10°C° 0 mm 1 m/S 765 mmHg 80%
    01:00 +10°C° 0 mm 1 m/S 765 mmHg 79%
    02:00 +10°C° 0 mm 1 m/S 764 mmHg 78%
    03:00 +10°C° 0 mm 1 m/S 764 mmHg 76%
    04:00 +10°C° 0 mm 1 m/S 764 mmHg 75%
    05:00 +10°C° 0 mm 1 m/S 764 mmHg 74%
    06:00 +10°C° 0 mm 1 m/S 764 mmHg 73%
    07:00 +10°C° 0 mm 1 m/S 764 mmHg 71%
    08:00 +12°C° 0 mm 1 m/S 764 mmHg 65%
    09:00 +13°C° 0 mm 1 m/S 764 mmHg 58%
    10:00 +15°C° 0 mm 1 m/S 764 mmHg 51%
    11:00 +16°C° 0 mm 1 m/S 763 mmHg 49%
    12:00 +16°C° 0 mm 1 m/S 763 mmHg 47%
    13:00 +18°C° 0 mm 1 m/S 763 mmHg 46%
    14:00 +16°C° 0 mm 1 m/S 762 mmHg 52%
    15:00 +15°C° 0 mm 1 m/S 762 mmHg 58%
    16:00 +14°C° 0 mm 1 m/S 762 mmHg 64%
    17:00 +13°C° 0 mm 2 m/S 762 mmHg 67%
    18:00 +12°C° 0 mm 2 m/S 763 mmHg 70%
    19:00 +12°C° 0 mm 2 m/S 763 mmHg 73%
    20:00 +10°C° 0 mm 3 m/S 763 mmHg 74%
    21:00 +10°C° 0 mm 3 m/S 763 mmHg 75%
    22:00 +10°C° 0 mm 3 m/S 763 mmHg 76%
    23:00 +10°C° 0 mm 4 m/S 763 mmHg 77%

    Morgen, 26 November, Sonntag

    Zeit Temperatur Niederschläge Wind Luftdruck Luftfeuchtigkeit
    00:00 +8°C° 0 mm 4 m/S 763 mmHg 78%
    01:00 +8°C° 0 mm 4 m/S 763 mmHg 78%
    02:00 +8°C° 0 mm 4 m/S 762 mmHg 78%
    03:00 +9°C° 0 mm 5 m/S 762 mmHg 77%
    04:00 +9°C° 0 mm 5 m/S 762 mmHg 77%
    05:00 +9°C° 0 mm 5 m/S 762 mmHg 77%
    06:00 +8°C° 0 mm 5 m/S 762 mmHg 77%
    07:00 +8°C° 0 mm 6 m/S 761 mmHg 76%
    08:00 +10°C° 0 mm 6 m/S 761 mmHg 72%
    09:00 +13°C° 0 mm 6 m/S 761 mmHg 67%
    10:00 +15°C° 0 mm 6 m/S 761 mmHg 62%
    11:00 +16°C° 0,1 mm 7 m/S 760 mmHg 62%
    12:00 +17°C° 0,1 mm 7 m/S 760 mmHg 62%
    13:00 +17°C° 0,1 mm 7 m/S 759 mmHg 62%
    14:00 +16°C° 0,4 mm 7 m/S 759 mmHg 67%
    15:00 +16°C° 0,4 mm 7 m/S 758 mmHg 72%
    16:00 +15°C° 0,4 mm 6 m/S 758 mmHg 77%
    17:00 +14°C° 1 mm 6 m/S 758 mmHg 80%
    18:00 +14°C° 1 mm 6 m/S 758 mmHg 83%
    19:00 +13°C° 1 mm 6 m/S 758 mmHg 86%
    20:00 +13°C° 1 mm 6 m/S 758 mmHg 87%
    21:00 +13°C° 1 mm 6 m/S 758 mmHg 88%
    22:00 +13°C° 1 mm 6 m/S 758 mmHg 89%
    23:00 +12°C° 0,4 mm 5 m/S 758 mmHg 89%

    übermorgen, 27 November, Montag

    Zeit Temperatur Niederschläge Wind Luftdruck Luftfeuchtigkeit
    00:00 +12°C° 0,4 mm 4 m/S 757 mmHg 89%
    01:00 +12°C° 0,4 mm 3 m/S 757 mmHg 89%
    02:00 +13°C° 0,7 mm 2 m/S 757 mmHg 90%
    03:00 +13°C° 0,7 mm 2 m/S 756 mmHg 91%
    04:00 +12°C° 0,7 mm 1 m/S 756 mmHg 93%
    05:00 +12°C° 0,5 mm 1 m/S 756 mmHg 93%
    06:00 +12°C° 0,5 mm 2 m/S 756 mmHg 93%
    07:00 +11°C° 0,5 mm 3 m/S 756 mmHg 93%
    08:00 +12°C° 0,2 mm 3 m/S 756 mmHg 88%
    09:00 +12°C° 0,2 mm 3 m/S 757 mmHg 82%
    10:00 +13°C° 0,2 mm 4 m/S 757 mmHg 77%
    11:00 +13°C° 0,2 mm 5 m/S 757 mmHg 76%
    12:00 +13°C° 0,2 mm 5 m/S 757 mmHg 75%
    13:00 +13°C° 0,2 mm 6 m/S 757 mmHg 73%
    14:00 +11°C° 0 mm 6 m/S 757 mmHg 74%
    15:00 +11°C° 0 mm 6 m/S 757 mmHg 74%
    16:00 +11°C° 0 mm 7 m/S 758 mmHg 75%
    17:00 +10°C° 0 mm 6 m/S 758 mmHg 75%
    18:00 +9°C° 0 mm 6 m/S 758 mmHg 76%
    19:00 +9°C° 0 mm 6 m/S 758 mmHg 77%
    20:00 +9°C° 0 mm 6 m/S 758 mmHg 77%
    21:00 +8°C° 0 mm 5 m/S 759 mmHg 77%
    22:00 +8°C° 0 mm 5 m/S 759 mmHg 77%
    23:00 +7°C° 0 mm 5 m/S 759 mmHg 78%

    28 November, Dienstag

    Zeit Temperatur Niederschläge Wind Luftdruck Luftfeuchtigkeit
    00:00 +7°C° 0 mm 5 m/S 759 mmHg 78%
    01:00 +7°C° 0 mm 5 m/S 759 mmHg 79%
    02:00 +6°C° 0 mm 5 m/S 759 mmHg 79%
    03:00 +6°C° 0 mm 5 m/S 759 mmHg 80%
    04:00 +6°C° 0 mm 5 m/S 759 mmHg 80%
    05:00 +6°C° 0 mm 4 m/S 759 mmHg 81%
    06:00 +5°C° 0 mm 4 m/S 759 mmHg 81%
    07:00 +5°C° 0 mm 4 m/S 760 mmHg 81%
    08:00 +6°C° 0 mm 4 m/S 760 mmHg 75%
    09:00 +7°C° 0 mm 4 m/S 760 mmHg 69%
    10:00 +8°C° 0 mm 4 m/S 760 mmHg 64%
    11:00 +10°C° 0 mm 4 m/S 760 mmHg 62%
    12:00 +10°C° 0 mm 4 m/S 759 mmHg 60%
    13:00 +11°C° 0 mm 4 m/S 759 mmHg 58%
    14:00 +10°C° 0 mm 4 m/S 759 mmHg 62%
    15:00 +10°C° 0 mm 4 m/S 759 mmHg 66%
    16:00 +8°C° 0 mm 4 m/S 759 mmHg 70%
    17:00 +8°C° 0 mm 3 m/S 759 mmHg 73%
    18:00 +7°C° 0 mm 3 m/S 760 mmHg 75%
    19:00 +7°C° 0 mm 2 m/S 760 mmHg 78%
    20:00 +6°C° 0 mm 2 m/S 760 mmHg 78%
    21:00 +6°C° 0 mm 2 m/S 760 mmHg 79%
    22:00 +6°C° 0 mm 2 m/S 760 mmHg 79%
    23:00 +6°C° 0 mm 2 m/S 761 mmHg 78%

    29 November, Mittwoch

    Zeit Temperatur Niederschläge Wind Luftdruck Luftfeuchtigkeit
    00:00 +6°C° 0 mm 2 m/S 761 mmHg 78%
    01:00 +5°C° 0 mm 2 m/S 761 mmHg 77%
    02:00 +5°C° 0 mm 2 m/S 761 mmHg 76%
    03:00 +5°C° 0 mm 2 m/S 761 mmHg 74%
    04:00 +5°C° 0 mm 2 m/S 761 mmHg 73%
    05:00 +5°C° 0 mm 2 m/S 761 mmHg 73%
    06:00 +5°C° 0 mm 2 m/S 761 mmHg 73%
    07:00 +5°C° 0 mm 2 m/S 761 mmHg 73%
    08:00 +7°C° 0 mm 2 m/S 761 mmHg 69%
    09:00 +9°C° 0 mm 3 m/S 761 mmHg 66%
    10:00 +10°C° 0 mm 3 m/S 761 mmHg 62%
    11:00 +11°C° 0 mm 3 m/S 761 mmHg 60%
    12:00 +11°C° 0 mm 4 m/S 761 mmHg 58%
    13:00 +12°C° 0 mm 4 m/S 760 mmHg 57%
    14:00 +11°C° 0 mm 4 m/S 760 mmHg 60%
    15:00 +9°C° 0 mm 5 m/S 760 mmHg 64%
    16:00 +8°C° 0 mm 5 m/S 760 mmHg 68%
    17:00 +8°C° 0 mm 5 m/S 760 mmHg 70%
    18:00 +7°C° 0 mm 6 m/S 760 mmHg 73%
    19:00 +7°C° 0 mm 6 m/S 760 mmHg 75%
    20:00 +6°C° 0 mm 7 m/S 760 mmHg 75%
    21:00 +5°C° 0 mm 7 m/S 760 mmHg 75%
    22:00 +5°C° 0 mm 7 m/S 760 mmHg 76%
    23:00 +6°C° 0 mm 8 m/S 760 mmHg 76%

    30 November, Donnerstag

    Zeit Temperatur Niederschläge Wind Luftdruck Luftfeuchtigkeit
    00:00 +6°C° 0 mm 8 m/S 759 mmHg 77%
    01:00 +6°C° 0 mm 9 m/S 759 mmHg 77%
    02:00 +7°C° 0,2 mm 9 m/S 758 mmHg 77%
    03:00 +8°C° 0,2 mm 9 m/S 757 mmHg 77%
    04:00 +8°C° 0,2 mm 10 m/S 757 mmHg 76%
    05:00 +9°C° 0,4 mm 10 m/S 756 mmHg 78%
    06:00 +9°C° 0,4 mm 10 m/S 756 mmHg 79%
    07:00 +9°C° 0,4 mm 10 m/S 756 mmHg 81%
    08:00 +11°C° 0,3 mm 10 m/S 756 mmHg 80%
    09:00 +12°C° 0,3 mm 10 m/S 755 mmHg 79%
    10:00 +13°C° 0,3 mm 11 m/S 755 mmHg 78%
    11:00 +13°C° 1 mm 11 m/S 755 mmHg 80%
    12:00 +13°C° 1 mm 10 m/S 754 mmHg 82%
    13:00 +13°C° 1 mm 10 m/S 754 mmHg 84%
    14:00 +13°C° 1,7 mm 10 m/S 754 mmHg 86%
    15:00 +13°C° 1,7 mm 9 m/S 754 mmHg 87%
    16:00 +13°C° 1,7 mm 9 m/S 754 mmHg 88%
    17:00 +13°C° 2,4 mm 8 m/S 754 mmHg 89%
    18:00 +14°C° 2,4 mm 7 m/S 754 mmHg 90%
    19:00 +14°C° 2,4 mm 6 m/S 754 mmHg 91%
    20:00 +14°C° 4,4 mm 5 m/S 754 mmHg 93%
    21:00 +14°C° 4,4 mm 4 m/S 754 mmHg 94%
    22:00 +13°C° 4,4 mm 3 m/S 754 mmHg 96%
    23:00 +12°C° 2,6 mm 3 m/S 754 mmHg 95%
    Mehr zeigen